DECAYED

STARLINK-5112, 53987 (Decayed)

Orbit data source: Space-Track

STARLINK-5112, 53987 was a payload satellite owned by SpaceX/Seattle (US) in LEO that was launched on Wed, 05 Oct 2022 UTC via an FALCON 9 launch vehicle from the Air Force Western Test Range (AFWTR). Payload-class satellites include a variety of spacecraft equipped with specific instruments for various scientific and technological missions. These include communications satellites like Starlink; space stations such as the ISS; scientific satellites like the Hubble; Earth observation satellites from companies like Planet Labs, Umbra, and HawkEye 360; GPS; miniature CubeSats for education and research; and military/defense satellites.

Not visible in the next 10 days
Identifier
53987, 2022-125Z
Orbit
Decayed
Country
Flag of USUS
Related business
Manufacturer
SpaceX/Seattle
Mission
Decayed Commercial Communications
Bus & Motor
STARLINK, Unknown motor
Mass
305 kg wet, ~290 kg dry
Launch date (UTC)
2022-10-05 (4 years ago)
Launch vehicle
FALCON 9
Launch site
Air Force Western Test Range (AFWTR)
Object type
Payload
Rocket body
Debris
Shape & HBR
Box + 1 Pan, 10.1 m
Radar Cross Section
13.562 m², Large (>1 m²)

Expand to show TLE details & history
Last TLE update: 1 year ago

TLE from 1 year ago
0 STARLINK-5112
1 53987U 22125Z   25057.53323664  .81970053  12472-4  29189-2 0  9999
2 53987  53.2075  73.2855 0000823 148.8178 344.5870 16.44638014132943
Epoch: 2025-02-26T12:47Z
TLE epoch observation values (Epoch: 2025-02-26T12:47:51.645Z)
Latitude
35.69989°
Longitude
-127.59847°
Altitude
155.686 km
Speed
7.818 km/s
True Right ascension
14h 43m 57s
True Declination
35° 31' 19"
Sunlit
Object was in full shadow at epoch
Visualization orbit readout
Latitude
Unknown
Longitude
Unknown
Altitude
Unknown
Speed
Unknown
Apparent Right ascension
Unknown
Apparent Declination
Unknown
Sunlit
N/A
Visualization observer readout
Local Sidereal Time
21:33:15
Azimuth
Unknown
Elevation
Unknown
Doppler factor
Unknown
Orbital elements
Apogee altitude
154.292 km
Perigee altitude
153.217 km
Semi-major axis
6,531.891 km
Eccentricity
0.00008
Inclination
53.2075°
RAAN
73.2855°
Arg. of periapsis
148.8178°
True anomaly
344.58449°
Mean anomaly
344.587°
Eccentric anomaly
344.58575°
Mean motion
4.11135 °/min
Orbital period
87.56 mins
BSTAR
0.0029189
Loading maneuver chart data...
Computing Atmospheric mass density...
Loading historical data...
Loading historical data...
Loading historical data...
Loading historical data...
Loading historical data...
Loading historical data...
Loading historical data...

Documentation

Showing up to 5 results
|